• In Czech Republic
  • List of Countries
  • For 7 days
  • Water Temperature
  • Satellite Maps
  • Weather Map
  • Weather Widgets
  • user-avatar
    Login

    Hourly Weather Mut

    Today, 21 October, Saturday

    Time Temperature Precipitation Wind Pressure Humidity
    00:00 +18°C° 0 mm 1 mps 733 mmHg 29%
    01:00 +18°C° 0 mm 1 mps 733 mmHg 29%
    02:00 +16°C° 0 mm 1 mps 732 mmHg 32%
    03:00 +16°C° 0 mm 1 mps 732 mmHg 33%
    04:00 +16°C° 0 mm 1 mps 732 mmHg 33%
    05:00 +15°C° 0 mm 1 mps 732 mmHg 34%
    06:00 +19°C° 0 mm 1 mps 732 mmHg 29%
    07:00 +21°C° 0 mm 1 mps 733 mmHg 25%
    08:00 +24°C° 0 mm 1 mps 733 mmHg 20%
    09:00 +25°C° 0 mm 1 mps 733 mmHg 19%
    10:00 +26°C° 0 mm 1 mps 733 mmHg 18%
    11:00 +27°C° 0 mm 1 mps 733 mmHg 17%
    12:00 +28°C° 0 mm 2 mps 733 mmHg 17%
    13:00 +28°C° 0 mm 2 mps 732 mmHg 18%
    14:00 +28°C° 0 mm 2 mps 732 mmHg 18%
    15:00 +26°C° 0 mm 2 mps 732 mmHg 23%
    16:00 +24°C° 0 mm 2 mps 731 mmHg 28%
    17:00 +22°C° 0 mm 1 mps 731 mmHg 33%
    18:00 +21°C° 0 mm 1 mps 731 mmHg 36%
    19:00 +20°C° 0 mm 1 mps 731 mmHg 38%
    20:00 +19°C° 0 mm 1 mps 731 mmHg 40%
    21:00 +18°C° 0 mm 1 mps 731 mmHg 40%
    22:00 +18°C° 0 mm 1 mps 731 mmHg 39%
    23:00 +18°C° 0 mm 1 mps 731 mmHg 39%

    Tomorrow, 22 October, Sunday

    Time Temperature Precipitation Wind Pressure Humidity
    00:00 +18°C° 0 mm 1 mps 731 mmHg 38%
    01:00 +16°C° 0 mm 1 mps 731 mmHg 37%
    02:00 +16°C° 0 mm 1 mps 731 mmHg 37%
    03:00 +16°C° 0 mm 1 mps 731 mmHg 37%
    04:00 +16°C° 0 mm 1 mps 730 mmHg 37%
    05:00 +16°C° 0 mm 1 mps 730 mmHg 37%
    06:00 +19°C° 0 mm 1 mps 731 mmHg 32%
    07:00 +19°C° 0 mm 0 mps 731 mmHg 28%
    08:00 +21°C° 0 mm 0 mps 731 mmHg 24%
    09:00 +24°C° 0 mm 1 mps 731 mmHg 22%
    10:00 +25°C° 0 mm 1 mps 731 mmHg 21%
    11:00 +27°C° 0 mm 1 mps 731 mmHg 20%
    12:00 +27°C° 0 mm 2 mps 731 mmHg 21%
    13:00 +27°C° 0 mm 2 mps 731 mmHg 21%
    14:00 +28°C° 0 mm 2 mps 730 mmHg 22%
    15:00 +26°C° 0 mm 2 mps 730 mmHg 27%
    16:00 +24°C° 0 mm 2 mps 730 mmHg 32%
    17:00 +21°C° 0 mm 2 mps 730 mmHg 38%
    18:00 +21°C° 0 mm 1 mps 730 mmHg 41%
    19:00 +20°C° 0 mm 1 mps 730 mmHg 44%
    20:00 +18°C° 0 mm 1 mps 730 mmHg 47%
    21:00 +18°C° 0 mm 1 mps 730 mmHg 46%
    22:00 +16°C° 0 mm 1 mps 730 mmHg 45%
    23:00 +16°C° 0 mm 1 mps 730 mmHg 44%

    Day after tomorrow, 23 October, Monday

    Time Temperature Precipitation Wind Pressure Humidity
    00:00 +16°C° 0 mm 1 mps 730 mmHg 43%
    01:00 +15°C° 0 mm 1 mps 730 mmHg 42%
    02:00 +14°C° 0 mm 0 mps 730 mmHg 42%
    03:00 +14°C° 0 mm 0 mps 730 mmHg 42%
    04:00 +13°C° 0 mm 0 mps 729 mmHg 42%
    05:00 +13°C° 0 mm 0 mps 729 mmHg 43%
    06:00 +16°C° 0 mm 1 mps 730 mmHg 37%
    07:00 +20°C° 0 mm 1 mps 730 mmHg 31%
    08:00 +22°C° 0 mm 1 mps 730 mmHg 25%
    09:00 +24°C° 0 mm 2 mps 730 mmHg 26%
    10:00 +25°C° 0 mm 2 mps 730 mmHg 27%
    11:00 +26°C° 0 mm 3 mps 730 mmHg 28%
    12:00 +26°C° 0 mm 3 mps 730 mmHg 31%
    13:00 +26°C° 0 mm 4 mps 729 mmHg 35%
    14:00 +26°C° 0 mm 4 mps 729 mmHg 38%
    15:00 +25°C° 0 mm 3 mps 729 mmHg 47%
    16:00 +22°C° 0 mm 3 mps 729 mmHg 56%
    17:00 +20°C° 0 mm 2 mps 728 mmHg 65%
    18:00 +19°C° 0 mm 2 mps 729 mmHg 72%
    19:00 +18°C° 0 mm 2 mps 729 mmHg 79%
    20:00 +17°C° 0 mm 2 mps 729 mmHg 86%
    21:00 +16°C° 0 mm 2 mps 729 mmHg 85%
    22:00 +16°C° 0 mm 2 mps 729 mmHg 84%
    23:00 +16°C° 0 mm 2 mps 729 mmHg 84%

    24 October, Tuesday

    Time Temperature Precipitation Wind Pressure Humidity
    00:00 +15°C° 0 mm 2 mps 729 mmHg 82%
    01:00 +15°C° 0 mm 2 mps 729 mmHg 79%
    02:00 +15°C° 0 mm 2 mps 729 mmHg 77%
    03:00 +15°C° 0 mm 2 mps 729 mmHg 76%
    04:00 +15°C° 0 mm 2 mps 729 mmHg 75%
    05:00 +14°C° 0 mm 3 mps 729 mmHg 74%
    06:00 +16°C° 0 mm 3 mps 729 mmHg 69%
    07:00 +18°C° 0 mm 3 mps 729 mmHg 64%
    08:00 +19°C° 0 mm 3 mps 730 mmHg 59%
    09:00 +20°C° 0 mm 4 mps 730 mmHg 55%
    10:00 +21°C° 0 mm 5 mps 730 mmHg 52%
    11:00 +22°C° 0 mm 5 mps 729 mmHg 48%
    12:00 +23°C° 0 mm 5 mps 729 mmHg 48%
    13:00 +23°C° 0 mm 6 mps 729 mmHg 47%
    14:00 +23°C° 0 mm 6 mps 728 mmHg 46%
    15:00 +22°C° 0 mm 5 mps 728 mmHg 51%
    16:00 +20°C° 0 mm 5 mps 729 mmHg 57%
    17:00 +19°C° 0 mm 4 mps 729 mmHg 63%
    18:00 +19°C° 0 mm 4 mps 729 mmHg 65%
    19:00 +18°C° 0 mm 4 mps 729 mmHg 68%
    20:00 +17°C° 0 mm 4 mps 729 mmHg 71%
    21:00 +17°C° 0 mm 4 mps 730 mmHg 71%
    22:00 +17°C° 0 mm 4 mps 730 mmHg 70%
    23:00 +17°C° 0 mm 4 mps 730 mmHg 70%

    25 October, Wednesday

    Time Temperature Precipitation Wind Pressure Humidity
    00:00 +17°C° 0.1 mm 4 mps 730 mmHg 70%
    01:00 +17°C° 0.1 mm 4 mps 729 mmHg 71%
    02:00 +17°C° 0.1 mm 4 mps 729 mmHg 71%
    03:00 +17°C° 0.2 mm 4 mps 729 mmHg 72%
    04:00 +17°C° 0.2 mm 4 mps 730 mmHg 73%
    05:00 +17°C° 0.2 mm 4 mps 730 mmHg 74%
    06:00 +18°C° 0.4 mm 4 mps 730 mmHg 75%
    07:00 +17°C° 0.4 mm 5 mps 730 mmHg 75%
    08:00 +19°C° 0.4 mm 5 mps 730 mmHg 76%
    09:00 +19°C° 0.4 mm 5 mps 730 mmHg 74%
    10:00 +20°C° 0.4 mm 5 mps 730 mmHg 73%
    11:00 +20°C° 0.4 mm 5 mps 731 mmHg 72%
    12:00 +20°C° 0.2 mm 6 mps 730 mmHg 68%
    13:00 +21°C° 0.2 mm 6 mps 730 mmHg 65%
    14:00 +22°C° 0.2 mm 6 mps 730 mmHg 62%
    15:00 +21°C° 0.4 mm 6 mps 730 mmHg 67%
    16:00 +20°C° 0.4 mm 5 mps 730 mmHg 72%
    17:00 +19°C° 0.4 mm 5 mps 730 mmHg 76%
    18:00 +19°C° 0.5 mm 5 mps 731 mmHg 80%
    19:00 +17°C° 0.5 mm 5 mps 731 mmHg 83%
    20:00 +17°C° 0.5 mm 5 mps 732 mmHg 86%
    21:00 +18°C° 0.4 mm 4 mps 732 mmHg 87%
    22:00 +17°C° 0.4 mm 4 mps 732 mmHg 88%
    23:00 +17°C° 0.4 mm 4 mps 732 mmHg 89%

    26 October, Thursday

    Time Temperature Precipitation Wind Pressure Humidity
    00:00 +17°C° 0.2 mm 4 mps 732 mmHg 88%
    01:00 +17°C° 0.2 mm 4 mps 732 mmHg 87%
    02:00 +17°C° 0.2 mm 3 mps 732 mmHg 85%
    03:00 +17°C° 0.2 mm 3 mps 732 mmHg 87%
    04:00 +16°C° 0.2 mm 3 mps 732 mmHg 88%
    05:00 +16°C° 0.2 mm 3 mps 732 mmHg 90%
    06:00 +17°C° 0.3 mm 4 mps 732 mmHg 84%
    07:00 +18°C° 0.3 mm 4 mps 733 mmHg 79%
    08:00 +19°C° 0.3 mm 4 mps 733 mmHg 74%
    09:00 +19°C° 0.9 mm 4 mps 733 mmHg 71%
    10:00 +20°C° 0.9 mm 5 mps 732 mmHg 68%
    11:00 +21°C° 0.9 mm 5 mps 732 mmHg 65%
    12:00 +20°C° 1.4 mm 4 mps 732 mmHg 69%
    13:00 +19°C° 1.4 mm 4 mps 732 mmHg 74%
    14:00 +18°C° 1.4 mm 3 mps 732 mmHg 79%
    15:00 +18°C° 2.5 mm 3 mps 732 mmHg 81%
    16:00 +17°C° 2.5 mm 3 mps 732 mmHg 82%
    17:00 +17°C° 2.5 mm 3 mps 732 mmHg 84%
    18:00 +17°C° 1.6 mm 2 mps 732 mmHg 83%
    19:00 +17°C° 1.6 mm 2 mps 732 mmHg 82%
    20:00 +17°C° 1.6 mm 2 mps 732 mmHg 81%
    21:00 +16°C° 1.1 mm 2 mps 732 mmHg 82%
    22:00 +16°C° 1.1 mm 2 mps 732 mmHg 83%
    23:00 +16°C° 1.1 mm 2 mps 731 mmHg 84%
    Show more